sat.trackr.live / text

‹ back to catalog

CELTEE 1

NORAD 41850 · 2016-067C

PAYLOAD ACTIVE UNKNOWN

§ Identity

Operator
Country
US
Launch date
2016-11-11
Launch site
AFWTR
Launch vehicle
Mass (kg)
RCS (m²)
0.01

Purposes: tech_demo

External: N2YO · Heavens-Above · Gunter

§ Orbital elements

Epoch: 2026-09-19T01:49:43.260096Z

Period
94.71 min
Inclination
98.0512°
Eccentricity
0.0000682
Mean motion
15.20468990 rev/d
Perigee alt
504.0 km
Apogee alt
504.9 km
Semi-major
6,882.6 km
B*
1.7115e-4
RAAN
135.0306°
Arg perigee
74.6552°
Mean anomaly
285.4757°
Rev number
54,014

§ Raw data

CELTEE 11 41850U 16067C   26262.07619514  .00003658  00000+0  17115-3 0  99982 41850  98.0512 135.0306 0000682  74.6552 285.4757 15.20468990540144

JSON: /api/v1/satellites/41850 · /tle

For live sub-satellite position, see the globe view (requires WebGL).

§ Visibility from observer

Set your observer location to see the next 7 days of passes ≥ 10°. The values pass through the URL so the page stays shareable.

No JS? Fill the form by hand. The geolocation button needs JavaScript.